• In Spain
  • List of Countries
  • For 7 days
  • Water Temperature
  • Satellite Maps
  • Weather Map
  • Weather Widgets
  • user-avatar
    Login

    Hourly Weather Biskira

    Today, 23 November, Thursday

    Time Temperature Precipitation Wind Pressure Humidity
    00:00 +13°C° 0 mm 1 mps 755 mmHg 50%
    01:00 +13°C° 0 mm 1 mps 755 mmHg 50%
    02:00 +12°C° 0 mm 1 mps 754 mmHg 51%
    03:00 +12°C° 0 mm 1 mps 754 mmHg 52%
    04:00 +12°C° 0 mm 1 mps 754 mmHg 53%
    05:00 +11°C° 0 mm 0 mps 754 mmHg 54%
    06:00 +10°C° 0 mm 0 mps 755 mmHg 56%
    07:00 +12°C° 0 mm 0 mps 755 mmHg 52%
    08:00 +14°C° 0 mm 1 mps 755 mmHg 47%
    09:00 +16°C° 0 mm 1 mps 755 mmHg 43%
    10:00 +18°C° 0 mm 1 mps 755 mmHg 40%
    11:00 +18°C° 0 mm 2 mps 755 mmHg 38%
    12:00 +19°C° 0 mm 2 mps 755 mmHg 35%
    13:00 +19°C° 0 mm 2 mps 755 mmHg 34%
    14:00 +20°C° 0 mm 2 mps 755 mmHg 32%
    15:00 +20°C° 0 mm 2 mps 754 mmHg 31%
    16:00 +19°C° 0 mm 2 mps 755 mmHg 33%
    17:00 +18°C° 0 mm 2 mps 755 mmHg 35%
    18:00 +18°C° 0 mm 2 mps 755 mmHg 37%
    19:00 +17°C° 0 mm 2 mps 756 mmHg 36%
    20:00 +17°C° 0 mm 2 mps 756 mmHg 36%
    21:00 +17°C° 0 mm 2 mps 756 mmHg 36%
    22:00 +16°C° 0 mm 2 mps 756 mmHg 36%
    23:00 +16°C° 0 mm 2 mps 756 mmHg 36%

    Tomorrow, 24 November, Friday

    Time Temperature Precipitation Wind Pressure Humidity
    00:00 +16°C° 0 mm 2 mps 756 mmHg 36%
    01:00 +15°C° 0 mm 2 mps 756 mmHg 35%
    02:00 +15°C° 0 mm 2 mps 756 mmHg 35%
    03:00 +14°C° 0 mm 2 mps 756 mmHg 35%
    04:00 +14°C° 0 mm 2 mps 756 mmHg 35%
    05:00 +14°C° 0 mm 1 mps 756 mmHg 35%
    06:00 +14°C° 0 mm 1 mps 756 mmHg 35%
    07:00 +15°C° 0 mm 1 mps 757 mmHg 31%
    08:00 +18°C° 0 mm 1 mps 757 mmHg 27%
    09:00 +20°C° 0 mm 1 mps 757 mmHg 24%
    10:00 +21°C° 0 mm 1 mps 757 mmHg 22%
    11:00 +22°C° 0 mm 1 mps 757 mmHg 21%
    12:00 +22°C° 0 mm 1 mps 757 mmHg 20%
    13:00 +22°C° 0 mm 1 mps 756 mmHg 20%
    14:00 +23°C° 0 mm 1 mps 756 mmHg 20%
    15:00 +23°C° 0 mm 1 mps 756 mmHg 20%
    16:00 +21°C° 0 mm 1 mps 756 mmHg 23%
    17:00 +20°C° 0 mm 1 mps 756 mmHg 27%
    18:00 +16°C° 0 mm 0 mps 756 mmHg 31%
    19:00 +16°C° 0 mm 0 mps 757 mmHg 31%
    20:00 +15°C° 0 mm 0 mps 757 mmHg 32%
    21:00 +16°C° 0 mm 1 mps 757 mmHg 33%
    22:00 +15°C° 0 mm 1 mps 757 mmHg 34%
    23:00 +15°C° 0 mm 1 mps 757 mmHg 35%

    Day after tomorrow, 25 November, Saturday

    Time Temperature Precipitation Wind Pressure Humidity
    00:00 +15°C° 0 mm 1 mps 757 mmHg 35%
    01:00 +14°C° 0 mm 1 mps 757 mmHg 36%
    02:00 +14°C° 0 mm 1 mps 757 mmHg 37%
    03:00 +13°C° 0 mm 1 mps 757 mmHg 37%
    04:00 +13°C° 0 mm 1 mps 757 mmHg 38%
    05:00 +13°C° 0 mm 1 mps 757 mmHg 38%
    06:00 +12°C° 0 mm 1 mps 757 mmHg 38%
    07:00 +14°C° 0 mm 1 mps 757 mmHg 34%
    08:00 +16°C° 0 mm 1 mps 757 mmHg 30%
    09:00 +19°C° 0 mm 1 mps 758 mmHg 26%
    10:00 +20°C° 0 mm 1 mps 757 mmHg 24%
    11:00 +21°C° 0 mm 1 mps 757 mmHg 23%
    12:00 +22°C° 0 mm 1 mps 757 mmHg 22%
    13:00 +22°C° 0 mm 1 mps 756 mmHg 22%
    14:00 +22°C° 0 mm 1 mps 756 mmHg 21%
    15:00 +22°C° 0 mm 1 mps 756 mmHg 21%
    16:00 +21°C° 0 mm 1 mps 756 mmHg 24%
    17:00 +19°C° 0 mm 1 mps 756 mmHg 28%
    18:00 +18°C° 0 mm 1 mps 756 mmHg 31%
    19:00 +16°C° 0 mm 1 mps 757 mmHg 32%
    20:00 +15°C° 0 mm 0 mps 757 mmHg 32%
    21:00 +15°C° 0 mm 0 mps 758 mmHg 33%
    22:00 +14°C° 0 mm 0 mps 757 mmHg 34%
    23:00 +14°C° 0 mm 0 mps 757 mmHg 34%

    26 November, Sunday

    Time Temperature Precipitation Wind Pressure Humidity
    00:00 +13°C° 0 mm 0 mps 757 mmHg 35%
    01:00 +13°C° 0 mm 0 mps 757 mmHg 35%
    02:00 +13°C° 0 mm 0 mps 757 mmHg 35%
    03:00 +14°C° 0 mm 1 mps 757 mmHg 35%
    04:00 +13°C° 0 mm 1 mps 757 mmHg 35%
    05:00 +13°C° 0 mm 1 mps 757 mmHg 34%
    06:00 +13°C° 0 mm 1 mps 757 mmHg 34%
    07:00 +15°C° 0 mm 1 mps 757 mmHg 30%
    08:00 +18°C° 0 mm 1 mps 758 mmHg 26%
    09:00 +18°C° 0 mm 0 mps 758 mmHg 22%
    10:00 +21°C° 0 mm 1 mps 758 mmHg 21%
    11:00 +22°C° 0 mm 1 mps 758 mmHg 19%
    12:00 +23°C° 0 mm 1 mps 757 mmHg 18%
    13:00 +23°C° 0 mm 1 mps 757 mmHg 18%
    14:00 +24°C° 0 mm 2 mps 757 mmHg 18%
    15:00 +24°C° 0 mm 2 mps 757 mmHg 18%
    16:00 +22°C° 0 mm 1 mps 757 mmHg 21%
    17:00 +21°C° 0 mm 1 mps 757 mmHg 24%
    18:00 +19°C° 0 mm 1 mps 758 mmHg 26%
    19:00 +19°C° 0 mm 1 mps 758 mmHg 28%
    20:00 +18°C° 0 mm 1 mps 758 mmHg 30%
    21:00 +18°C° 0 mm 1 mps 759 mmHg 31%
    22:00 +16°C° 0 mm 1 mps 759 mmHg 34%
    23:00 +16°C° 0 mm 1 mps 759 mmHg 37%

    27 November, Monday

    Time Temperature Precipitation Wind Pressure Humidity
    00:00 +16°C° 0 mm 1 mps 759 mmHg 39%
    01:00 +15°C° 0 mm 1 mps 758 mmHg 40%
    02:00 +15°C° 0 mm 1 mps 758 mmHg 41%
    03:00 +15°C° 0 mm 2 mps 758 mmHg 42%
    04:00 +14°C° 0 mm 2 mps 758 mmHg 44%
    05:00 +14°C° 0 mm 2 mps 758 mmHg 47%
    06:00 +14°C° 0 mm 2 mps 758 mmHg 50%
    07:00 +15°C° 0 mm 2 mps 759 mmHg 48%
    08:00 +16°C° 0 mm 3 mps 759 mmHg 47%
    09:00 +17°C° 0 mm 4 mps 759 mmHg 46%
    10:00 +18°C° 0 mm 4 mps 759 mmHg 43%
    11:00 +19°C° 0 mm 4 mps 758 mmHg 41%
    12:00 +19°C° 0 mm 4 mps 758 mmHg 39%
    13:00 +19°C° 0 mm 3 mps 757 mmHg 39%
    14:00 +19°C° 0 mm 3 mps 757 mmHg 39%
    15:00 +19°C° 0 mm 3 mps 756 mmHg 40%
    16:00 +18°C° 0 mm 2 mps 757 mmHg 44%
    17:00 +18°C° 0 mm 2 mps 757 mmHg 47%
    18:00 +17°C° 0 mm 2 mps 757 mmHg 51%
    19:00 +18°C° 0 mm 1 mps 757 mmHg 53%
    20:00 +16°C° 0 mm 1 mps 757 mmHg 54%
    21:00 +16°C° 0 mm 1 mps 757 mmHg 56%
    22:00 +16°C° 0 mm 1 mps 757 mmHg 58%
    23:00 +15°C° 0 mm 1 mps 757 mmHg 60%

    28 November, Tuesday

    Time Temperature Precipitation Wind Pressure Humidity
    00:00 +15°C° 0 mm 1 mps 756 mmHg 62%
    01:00 +15°C° 0 mm 1 mps 756 mmHg 62%
    02:00 +15°C° 0 mm 1 mps 756 mmHg 62%
    03:00 +14°C° 0 mm 0 mps 755 mmHg 62%
    04:00 +14°C° 0.1 mm 0 mps 755 mmHg 63%
    05:00 +14°C° 0.1 mm 0 mps 755 mmHg 64%
    06:00 +13°C° 0.1 mm 0 mps 755 mmHg 64%
    07:00 +15°C° 0 mm 1 mps 755 mmHg 60%
    08:00 +16°C° 0 mm 1 mps 755 mmHg 56%
    09:00 +18°C° 0 mm 1 mps 755 mmHg 51%
    10:00 +19°C° 0 mm 1 mps 755 mmHg 47%
    11:00 +19°C° 0 mm 1 mps 754 mmHg 44%
    12:00 +20°C° 0 mm 1 mps 753 mmHg 40%
    13:00 +19°C° 0 mm 2 mps 753 mmHg 39%
    14:00 +19°C° 0 mm 2 mps 752 mmHg 38%
    15:00 +20°C° 0 mm 2 mps 752 mmHg 37%
    16:00 +19°C° 0 mm 2 mps 752 mmHg 40%
    17:00 +18°C° 0 mm 2 mps 752 mmHg 43%
    18:00 +17°C° 0 mm 2 mps 752 mmHg 45%
    19:00 +17°C° 0 mm 2 mps 752 mmHg 46%
    20:00 +17°C° 0 mm 2 mps 752 mmHg 47%
    21:00 +16°C° 0 mm 2 mps 752 mmHg 48%
    22:00 +16°C° 0 mm 2 mps 752 mmHg 48%
    23:00 +16°C° 0 mm 3 mps 751 mmHg 49%
    Show more